Time,TemperatureF,DewpointF,PressureIn,WindDirection,WindDirectionDegrees,WindSpeedMPH,WindSpeedGustMPH,Humidity,HourlyPrecipIn,Conditions,Clouds,dailyrainin,SoftwareType,DateUTC
2013-04-29 16:01:00,71.0,55.0,29.91,WSW,244,1.0,7.0,57,0.00,,,0.00,,2013-04-29 21:01:00,
2013-04-29 16:11:00,71.0,55.0,29.91,WSW,244,1.0,7.0,57,0.00,,,0.00,,2013-04-29 21:11:00,
2013-04-29 16:21:00,71.0,54.0,29.90,WNW,292,2.0,8.0,54,0.00,,,0.00,,2013-04-29 21:21:00,
2013-04-29 16:33:00,71.0,54.0,29.90,SW,215,2.0,8.0,56,0.00,,,0.00,,2013-04-29 21:33:00,
2013-04-29 16:42:00,71.0,54.0,29.90,SW,215,2.0,8.0,56,0.00,,,0.00,,2013-04-29 21:42:00,
2013-04-29 16:53:00,72.0,54.0,29.89,SW,233,4.0,6.0,54,0.00,,,0.00,,2013-04-29 21:53:00,
2013-04-29 17:02:00,72.0,53.0,29.89,WSW,250,4.0,8.0,51,0.00,,,0.00,,2013-04-29 22:02:00,
2013-04-29 17:13:00,72.0,53.0,29.89,WSW,250,4.0,8.0,51,0.00,,,0.00,,2013-04-29 22:13:00,
2013-04-29 17:23:00,72.0,53.0,29.89,West,278,1.0,9.0,52,0.00,,,0.00,,2013-04-29 22:23:00,
2013-04-29 17:32:00,72.0,53.0,29.89,West,278,1.0,9.0,52,0.00,,,0.00,,2013-04-29 22:32:00,
2013-04-29 17:42:00,72.0,53.0,29.89,West,278,1.0,9.0,52,0.00,,,0.00,,2013-04-29 22:42:00,
2013-04-29 17:52:00,72.0,53.0,29.89,NW,315,8.0,10.0,51,0.00,,,0.00,,2013-04-29 22:52:00,
2013-04-29 18:02:00,72.0,53.0,29.88,NNW,333,7.0,8.0,52,0.00,,,0.00,,2013-04-29 23:02:00,
2013-04-29 18:11:00,72.0,53.0,29.88,NNW,333,7.0,8.0,52,0.00,,,0.00,,2013-04-29 23:11:00,
2013-04-29 18:22:00,72.0,53.0,29.88,NW,311,5.0,7.0,51,0.00,,,0.00,,2013-04-29 23:22:00,
2013-04-29 18:32:00,72.0,53.0,29.88,West,278,4.0,6.0,51,0.00,,,0.00,,2013-04-29 23:32:00,
2013-04-29 18:42:00,72.0,53.0,29.88,West,278,4.0,6.0,51,0.00,,,0.00,,2013-04-29 23:42:00,
2013-04-29 18:52:00,72.0,52.0,29.88,West,280,2.0,5.0,49,0.00,,,0.00,,2013-04-29 23:52:00,
2013-04-29 19:01:00,71.0,51.0,29.88,West,281,2.0,5.0,50,0.00,,,0.00,,2013-04-30 00:01:00,
2013-04-29 19:11:00,71.0,51.0,29.88,West,281,2.0,5.0,50,0.00,,,0.00,,2013-04-30 00:11:00,
2013-04-29 19:21:00,70.0,52.0,29.89,West,281,1.0,3.0,52,0.00,,,0.00,,2013-04-30 00:21:00,
2013-04-29 19:32:00,69.0,52.0,29.89,West,281,0.0,2.0,55,0.00,,,0.00,,2013-04-30 00:32:00,
2013-04-29 19:41:00,69.0,52.0,29.89,West,281,0.0,2.0,55,0.00,,,0.00,,2013-04-30 00:41:00,
2013-04-29 19:52:00,68.0,53.0,29.89,West,281,0.0,0.0,58,0.00,,,0.00,,2013-04-30 00:52:00,
2013-04-29 20:01:00,66.0,53.0,29.89,West,281,0.0,0.0,64,0.00,,,0.00,,2013-04-30 01:01:00,
2013-04-29 20:11:00,66.0,53.0,29.89,West,281,0.0,0.0,64,0.00,,,0.00,,2013-04-30 01:11:00,
2013-04-29 20:21:00,65.0,54.0,29.90,West,281,0.0,0.0,68,0.00,,,0.00,,2013-04-30 01:21:00,
2013-04-29 20:32:00,64.0,54.0,29.90,West,281,0.0,0.0,70,0.00,,,0.00,,2013-04-30 01:32:00,
2013-04-29 20:41:00,64.0,54.0,29.90,West,281,0.0,0.0,70,0.00,,,0.00,,2013-04-30 01:41:00,
2013-04-29 20:52:00,62.0,53.0,29.91,West,281,0.0,0.0,72,0.00,,,0.00,,2013-04-30 01:52:00,
2013-04-29 21:01:00,61.0,54.0,29.91,West,281,0.0,0.0,77,0.00,,,0.00,,2013-04-30 02:01:00,
2013-04-29 21:11:00,60.0,53.0,29.91,West,281,0.0,0.0,78,0.00,,,0.00,,2013-04-30 02:11:00,
2013-04-29 21:21:00,60.0,53.0,29.91,West,281,0.0,0.0,78,0.00,,,0.00,,2013-04-30 02:21:00,
2013-04-29 21:31:00,59.0,53.0,29.92,West,281,0.0,0.0,80,0.00,,,0.00,,2013-04-30 02:31:00,
2013-04-29 21:41:00,59.0,53.0,29.92,West,281,0.0,0.0,80,0.00,,,0.00,,2013-04-30 02:41:00,
2013-04-29 21:51:00,59.0,52.0,29.92,West,281,0.0,0.0,79,0.00,,,0.00,,2013-04-30 02:51:00,
2013-04-29 22:01:00,58.0,52.0,29.92,West,281,0.0,0.0,81,0.00,,,0.00,,2013-04-30 03:01:00,
2013-04-29 22:11:00,58.0,53.0,29.93,West,281,0.0,0.0,83,0.00,,,0.00,,2013-04-30 03:11:00,
2013-04-29 22:21:00,58.0,53.0,29.93,West,281,0.0,0.0,83,0.00,,,0.00,,2013-04-30 03:21:00,
2013-04-29 22:33:00,57.0,52.0,29.92,West,281,0.0,0.0,84,0.00,,,0.00,,2013-04-30 03:33:00,
2013-04-29 22:42:00,57.0,52.0,29.92,West,281,0.0,0.0,84,0.00,,,0.00,,2013-04-30 03:42:00,
2013-04-29 22:52:00,57.0,53.0,29.92,West,281,0.0,0.0,86,0.00,,,0.00,,2013-04-30 03:52:00,
2013-04-29 23:02:00,56.0,52.0,29.92,West,281,0.0,0.0,86,0.00,,,0.00,,2013-04-30 04:02:00,
2013-04-29 23:12:00,56.0,52.0,29.91,West,281,0.0,0.0,88,0.00,,,0.00,,2013-04-30 04:12:00,
2013-04-29 23:22:00,56.0,52.0,29.91,West,281,0.0,0.0,88,0.00,,,0.00,,2013-04-30 04:22:00,
2013-04-29 23:32:00,56.0,52.0,29.91,West,281,0.0,0.0,88,0.00,,,0.00,,2013-04-30 04:32:00,
2013-04-29 23:42:00,56.0,52.0,29.91,West,281,0.0,0.0,88,0.00,,,0.00,,2013-04-30 04:42:00,
2013-04-29 23:52:00,55.0,52.0,29.91,West,281,0.0,0.0,89,0.00,,,0.00,,2013-04-30 04:52:00,